Retour au catalogue

STARLINK-31739

ActifCommunicationsVLEO
NORAD 59766·PAYLOAD·🇺🇸 United States

Lancé May 14, 2024 depuis Vandenberg Space Force Base

Loading…

Prochains Passages (prochaines 24 heures)

TLE

FraisSource: CelesTrak SupGP

Époque: Sep 14, 2026, 21:17 UTC

1 59766C 24091P   26257.88729167  .00038504  00000+0  11375-2 0  2574
2 59766  53.1574 223.6594 0001365  97.7672 269.9930 15.34373551    10

Suivez STARLINK-31739 en temps réel avec AllMySat

Download on the App Store